Presure
251 256 262 258 267 298 291 287 293 301 284 262 302 281 284 275 270 241 225 225 216 225 222 219 182 221 210
267 259 253 279 288 288 296 272 284 292 334 150 353 299 281 271 289 292 229 203 229 224 213 222 179 126 205
283 274 265 290 263 280 297 289 257 285 289 307 135 218 290 291 273 283 255 225 220 228 226 209 210 210 207
273 264 281 255 296 304 298 290 280 277 280 272 286 291 318 200 177 225 287 255 226 238 225 225 214 219 214
256 297 264 256 325 306 288 286 283 264 286 282 260 274 314 294 274 253 135 298 258 252 237 238 226 224 237
286 305 254 324 327 310 296 282 286 277 254 288 290 283 300 308 269 268 275 257 189 267 246 241 243 229 228
272 315 309 354 357 290 294 284 229 281 275 262 285 295 265 282 313 274 259 273 258 245 171 265 255 208 236
371 297 333 328 321 306 286 295 286 279 286 284 264 285 295 272 306 283 295 266 271 266 271 260 236 265 127
376 354 338 283 320 295 290 292 285 274 276 271 279 288 295 304 269 270 285 328 257 263 271 280 267 259 259
311 364 326 317 299 296 287 279 278 275 278 286 294 284 287 304 309 314 286 284 318 353 316 284 294 274 263
320 309 311 297 297 286 275 275 273 279 277 293 297 301 289 297 316 326 332 338 306 313 276 298 342 305 297
295 287 283 284 277 274 271 275 285 278 295 290 291 302 310 309 316 337 363 376 384 389 399 362 374 297 343
283 276 271 275 279 284 276 290 299 291 300 302 302 303 321 335 353 384 412 421 463 476 507 505 481 447 394
279 276 276 281 280 287 296 279 304 299 296 297 316 305 345 339 386 382 381 388 418 454 487 482 472 459 438
279 279 281 282 281 288 303 296 291 290 301 310 321 327 377 365 363 369 373 374 391 424 448 458 483 467 445
278 286 298 293 298 302 293 289 284 297 299 297 316 376 351 349 355 343 347 346 362 380 398 443 454 473 483
291 289 291 309 301 288 290 280 306 296 288 312 370 347 346 332 328 340 333 333 334 348 364 378 400 447 476
Wind_Speed
68 66 61 56 54 49 49 46 44 42 47 49 82 79 86 83 82 105 111 116 113 114 111 108 78 94 100
68 66 63 61 56 53 50 49 46 45 38 64 50 85 87 83 81 93 113 96 118 116 106 106 87 52 102
68 65 62 58 58 54 50 50 54 46 47 46 69 73 86 78 81 85 111 114 111 121 115 107 102 105 108
65 66 61 60 56 53 51 51 50 49 49 51 52 55 71 79 75 76 85 116 117 120 114 119 112 116 114
64 63 61 61 51 53 52 52 52 53 48 51 57 58 60 84 91 89 76 93 115 125 126 128 130 122 122
65 61 64 55 53 54 55 54 55 55 61 50 52 56 62 70 87 87 93 89 83 122 115 126 127 126 122
62 56 55 47 47 53 56 56 56 56 59 62 54 57 68 71 68 97 87 100 99 103 87 126 130 113 127
43 57 48 47 48 53 54 57 56 56 57 60 64 61 62 74 70 83 99 104 111 110 118 117 111 130 79
45 45 46 51 44 49 52 54 56 58 57 62 63 66 67 68 84 86 92 79 99 104 117 130 124 121 122
43 32 35 37 41 44 47 52 56 58 59 63 63 65 70 73 75 76 90 96 92 87 120 128 134 130 118
26 26 29 35 39 44 48 52 54 59 60 63 67 68 69 73 79 81 81 83 92 96 101 111 118 137 132
29 32 33 36 41 45 50 55 60 60 61 63 67 69 71 74 77 82 83 84 85 86 86 93 94 111 119
32 35 38 41 44 46 49 56 58 59 62 64 65 68 72 75 73 60 49 49 51 50 45 50 59 73 92
36 38 41 44 46 51 53 54 57 58 59 61 65 66 67 66 45 44 43 44 44 42 36 43 51 59 66
38 41 43 47 48 49 50 51 54 57 60 62 64 62 37 40 40 33 31 37 37 37 36 34 38 51 58
42 45 46 49 47 46 46 50 54 57 60 61 59 33 37 40 33 30 29 32 33 33 31 30 34 37 43
45 44 48 50 44 44 46 51 56 56 60 57 34 35 32 35 40 31 22 27 31 34 31 25 28 31 34
Wind_Direction
294 293 293 290 290 283 275 271 268 260 249 247 231 232 228 221 222 216 222 224 232 232 236 238 239 230 245
287 289 288 289 288 281 272 263 266 265 266 247 242 235 234 231 229 222 219 238 224 231 239 237 242 251 245
285 285 284 282 281 278 268 265 259 261 259 256 247 241 235 232 231 225 218 226 227 227 228 240 245 245 248
284 284 280 280 277 267 263 263 257 258 255 252 249 241 235 244 246 235 231 222 230 229 232 229 239 240 242
285 278 279 280 265 260 261 259 258 251 256 251 249 245 241 233 237 238 251 233 227 229 231 231 233 238 234
278 274 279 271 260 254 254 258 257 254 250 254 249 246 240 237 238 240 238 230 239 228 232 232 231 235 234
281 271 269 261 256 257 251 255 263 255 254 249 253 253 244 237 241 235 240 240 233 233 243 234 233 237 234
264 270 262 257 251 248 254 255 254 256 258 258 251 256 256 243 243 236 236 239 240 237 234 237 237 234 254
268 263 259 263 245 250 254 255 255 256 259 260 262 262 263 261 243 242 237 246 242 241 241 235 236 238 237
269 259 249 246 252 253 255 257 260 264 265 268 266 263 264 266 261 257 243 240 243 248 239 241 237 240 239
262 258 252 253 253 254 260 263 265 267 267 270 269 268 263 266 269 267 262 259 249 247 245 241 240 240 239
258 258 262 263 264 263 265 267 269 269 273 272 272 274 274 272 272 274 274 273 269 264 260 251 250 242 239
267 267 266 269 271 271 269 275 274 274 277 278 279 279 282 283 283 283 288 298 297 293 280 268 257 250 243
271 272 274 275 275 276 277 275 279 278 280 283 287 285 289 286 289 291 293 295 308 302 299 272 260 251 247
279 280 279 278 276 279 280 279 281 285 289 291 293 293 292 287 293 303 307 304 311 315 301 293 276 259 249
278 280 283 283 281 281 282 284 287 293 294 294 296 295 290 290 295 295 301 303 313 318 324 316 293 280 262
281 284 285 288 284 283 286 286 297 296 295 299 295 293 290 290 296 302 302 303 307 314 318 324 315 305 287